EHI
1 2 6 6 3 1 1 0 1 1 1 0 0 0 0 0 0 0 0 0 0 0 0 0 0 0 0 0 0 1 1 1 0 0 0 0 0 0 0 0 0 0 0
2 3 6 7 4 2 1 0 0 0 0 0 0 0 0 0 0 0 0 0 0 0 0 0 0 0 0 0 0 0 0 0 0 0 0 0 0 0 0 0 0 0 0
3 4 6 7 5 3 2 1 0 0 0 0 0 0 0 0 0 0 0 0 0 0 0 0 0 0 0 0 0 0 0 0 0 0 0 0 0 0 0 0 0 0 0
3 3 5 6 5 4 3 1 1 0 0 0 0 0 0 0 0 0 0 0 0 0 0 0 0 0 0 0 0 0 0 0 0 0 0 0 0 0 0 0 0 0 0
3 3 5 6 5 3 2 1 1 0 0 0 0 0 0 0 0 0 0 0 0 0 0 0 0 0 0 0 0 0 0 0 0 0 0 0 0 0 0 0 0 0 0
4 4 6 6 4 3 2 1 0 0 0 0 0 0 0 0 0 0 0 0 0 0 0 0 0 0 0 0 0 0 0 0 0 0 0 0 0 0 0 0 0 0 0
5 6 6 6 4 3 3 1 0 0 0 0 0 0 0 1 1 0 0 0 0 0 0 0 0 0 0 0 0 0 0 0 0 0 0 0 0 1 0 0 0 0 0
5 6 6 5 4 3 3 2 1 0 0 0 0 0 1 2 2 1 0 0 0 0 0 0 0 0 0 0 0 0 0 0 0 0 0 0 0 0 0 0 0 0 0
5 6 4 3 3 3 3 2 1 0 0 0 0 0 1 2 2 1 0 0 0 0 0 0 0 0 0 0 0 0 0 0 0 0 0 0 0 0 0 0 0 0 0
5 5 3 2 2 3 3 2 1 1 0 0 0 0 0 1 1 0 0 0 0 0 0 0 0 0 0 0 0 0 0 0 0 0 0 0 0 0 0 0 0 0 0
3 3 2 1 2 2 2 1 1 1 0 0 0 0 0 0 0 0 0 0 0 0 0 0 0 0 0 0 0 0 0 0 0 0 0 0 0 0 0 0 0 0 0
1 1 0 0 1 1 1 1 1 0 0 0 0 0 0 0 0 0 0 0 0 0 0 0 0 0 0 0 0 0 0 0 0 0 0 0 0 0 0 0 0 0 0
0 0 0 0 1 1 0 0 1 0 0 0 0 0 0 0 0 0 0 0 0 0 0 0 0 0 0 0 0 0 0 0 0 0 0 0 0 0 0 0 0 0 0
0 0 0 0 1 1 1 0 0 0 0 0 0 0 0 0 0 0 0 0 0 0 0 0 0 0 0 0 0 0 0 0 0 0 0 0 0 0 0 0 0 0 0
0 0 0 0 0 1 2 1 0 0 0 0 0 0 0 0 0 0 0 0 0 0 0 0 0 0 0 0 0 0 0 0 0 0 0 0 0 0 0 0 0 0 0
0 0 0 0 0 1 2 1 0 0 0 0 0 0 0 0 0 0 0 0 0 0 0 0 0 0 0 0 0 0 0 0 0 0 0 0 0 0 1 1 1 0 0
0 0 0 0 0 0 1 1 0 0 0 0 0 0 0 0 0 0 0 0 0 0 0 0 0 0 0 0 0 0 0 0 0 0 0 0 0 0 1 1 1 0 0
0 0 0 0 0 0 0 0 0 0 0 0 0 0 0 0 0 0 0 0 0 0 0 0 0 0 0 0 0 0 0 0 0 0 0 0 0 0 0 1 1 0 0
0 0 0 0 0 0 0 0 0 0 0 0 0 0 0 0 0 0 0 0 0 0 0 0 0 0 0 0 0 0 0 0 0 0 0 0 0 0 0 0 0 0 0
0 0 0 0 0 0 0 0 0 0 0 0 0 0 0 0 0 0 0 0 0 0 0 0 0 0 0 0 0 0 0 0 0 0 0 0 0 0 0 0 0 0 0
0 0 0 0 0 0 0 0 0 0 0 0 0 0 0 0 0 0 0 0 0 0 0 0 0 0 0 0 0 0 0 0 0 0 0 0 0 0 0 0 0 0 0
0 0 0 0 0 0 0 0 0 0 0 0 0 0 0 0 0 0 0 0 0 0 0 0 0 0 0 0 0 0 0 0 0 0 0 0 0 0 0 0 0 0 0
0 0 0 0 0 0 0 0 0 0 0 0 0 0 0 0 0 0 0 0 0 0 0 0 0 0 0 0 0 0 0 0 0 0 0 0 0 0 0 0 0 0 0
0 0 0 0 0 0 0 0 0 0 0 0 0 0 0 0 0 0 0 0 0 0 0 0 0 0 0 0 0 0 0 0 0 0 0 0 0 0 0 0 0 0 0
0 0 0 0 0 0 0 0 0 0 0 0 0 0 0 0 0 0 0 0 0 0 0 0 0 0 0 0 0 0 0 0 0 0 0 0 0 0 0 0 0 0 0
0 0 0 0 0 0 0 0 0 0 0 0 0 0 0 0 0 0 0 0 0 0 0 0 0 0 0 0 0 0 0 0 0 0 0 0 0 0 0 0 0 0 0
Wind_Speed
3 4 5 5 5 5 4 3 3 4 4 4 4 4 4 4 4 5 5 6 5 5 6 7 8 8 9 10 11 11 11 11 12 12 11 11 11 11 11 10 10 9 13
3 5 6 6 5 5 4 4 4 3 4 4 3 4 4 4 4 5 5 4 4 5 5 7 8 8 9 10 10 10 10 10 10 9 9 9 9 10 11 11 11 8 12
4 5 6 7 6 6 5 4 4 3 3 3 3 3 3 4 4 4 4 4 4 4 5 7 8 8 9 9 9 9 8 7 6 4 5 5 6 10 11 11 11 11 11
5 5 5 6 6 6 5 4 4 3 3 3 2 3 3 3 3 4 4 4 4 4 6 6 7 8 8 8 8 7 6 4 2 1 2 4 5 9 10 10 11 11 11
5 5 6 6 6 6 5 5 4 3 3 2 2 2 2 3 3 3 3 4 4 4 6 6 6 7 8 8 7 6 5 2 1 1 2 5 5 8 9 10 10 10 10
4 5 5 6 6 5 5 4 4 2 2 2 2 2 2 2 3 3 3 4 4 5 6 6 6 6 7 7 6 5 3 1 1 1 3 5 5 9 10 10 10 10 10
4 5 4 5 5 5 4 4 4 3 2 2 3 3 2 2 3 3 4 4 4 5 5 6 6 6 7 7 6 4 2 1 1 2 4 5 6 10 10 10 9 10 10
4 4 3 4 4 4 3 3 3 3 2 2 3 3 2 2 3 3 4 4 4 4 5 5 6 6 6 6 5 4 2 1 2 3 5 5 8 9 9 9 9 9 10
3 3 2 2 2 2 2 2 3 2 2 2 2 3 3 3 3 3 3 4 4 5 5 5 5 6 5 5 5 3 2 2 2 2 5 4 7 9 9 9 9 9 10
3 3 2 2 2 1 1 1 1 1 2 2 2 2 2 2 2 3 3 4 4 5 5 5 5 6 5 4 4 2 1 1 1 3 3 5 8 8 9 9 9 9 9
2 2 2 2 2 2 1 0 1 1 0 1 1 0 1 1 1 2 4 4 4 5 4 4 4 5 4 4 3 2 1 0 1 2 3 7 8 9 9 8 9 9 9
1 1 1 1 1 1 1 1 0 0 1 0 1 0 1 1 1 2 4 4 4 4 3 3 4 4 3 2 2 2 1 1 1 3 4 8 8 8 8 8 8 8 8
0 1 1 1 1 1 1 0 0 0 1 0 1 1 0 1 1 1 1 2 2 3 2 2 3 2 2 2 2 1 1 1 2 3 3 7 7 7 7 7 7 7 6
0 0 0 1 1 1 0 0 0 0 0 0 1 1 1 1 1 1 1 1 1 1 1 1 1 2 2 2 2 2 1 1 2 3 3 6 6 7 7 7 7 6 6
0 0 0 1 1 0 0 0 0 0 0 1 0 1 1 0 1 1 1 1 1 1 2 1 1 1 2 2 2 2 2 2 3 3 3 5 6 6 7 7 7 6 6
0 0 1 1 1 0 0 0 1 0 0 0 1 1 1 1 0 1 1 1 1 1 2 2 2 1 1 2 2 2 2 2 2 4 3 3 5 6 7 7 6 6 6
1 1 1 1 0 0 0 0 0 1 1 0 1 1 1 1 1 1 1 0 0 1 2 2 2 1 1 2 2 2 2 2 2 3 3 3 3 5 6 6 6 6 5
1 1 1 1 0 0 0 0 0 1 1 0 0 1 1 1 1 1 1 0 0 1 1 2 2 2 2 1 1 2 2 2 2 2 2 2 2 2 3 5 5 5 5
1 0 1 1 1 0 0 0 0 1 1 0 0 1 1 1 1 1 1 1 1 1 1 2 2 2 3 2 1 2 2 2 2 2 2 2 3 3 2 3 4 4 4
1 1 0 1 1 1 0 0 0 0 1 1 1 1 1 1 1 1 1 1 1 2 1 2 3 2 2 2 2 2 2 1 1 2 2 2 2 3 3 3 2 2 3
2 1 0 1 1 1 0 0 1 1 0 0 0 1 1 1 1 1 1 1 1 2 2 2 3 3 1 2 2 2 2 1 1 1 2 2 2 3 3 3 2 1 1
2 1 1 1 1 1 0 0 1 1 1 1 0 0 1 1 1 1 2 1 2 2 2 2 3 2 1 1 2 2 1 1 1 1 1 2 2 2 2 2 2 1 1
2 2 1 1 2 2 2 1 0 0 0 0 0 0 1 1 1 1 2 2 2 2 2 2 3 3 2 1 1 2 2 2 0 1 0 1 1 1 1 1 1 1 1
2 1 1 1 2 2 2 2 2 1 1 1 1 0 0 1 2 1 2 2 2 2 3 3 2 2 3 2 1 0 1 2 2 1 1 0 1 1 1 0 0 0 1
2 1 1 2 2 2 2 3 2 2 1 1 1 0 0 0 1 2 2 2 2 2 3 3 2 2 2 2 2 1 1 1 1 2 2 1 1 1 1 1 1 1 1
2 2 1 2 2 2 3 2 2 3 2 2 1 1 1 0 1 1 2 1 2 2 3 3 3 3 2 2 2 1 1 2 1 1 1 1 2 2 1 1 1 1 1
Wind_Direction
70 94 80 70 62 57 62 73 78 86 94 98 102 97 97 96 96 93 93 91 90 98 104 101 101 101 97 95 92 87 84 84 84 82 79 78 78 78 76 73 79 77 79
87 93 80 70 66 59 58 64 74 81 88 96 104 103 104 101 104 97 98 96 97 102 110 107 109 107 104 102 97 93 92 92 92 92 87 80 77 78 75 73 81 86 83
87 91 84 66 65 58 53 56 66 83 92 94 102 107 105 106 103 103 104 99 101 107 105 107 109 108 107 106 103 100 99 99 104 108 105 100 87 82 83 83 85 87 86
84 90 85 66 64 60 53 56 60 70 84 97 103 106 115 115 111 107 106 101 100 108 105 103 110 109 108 108 107 106 105 100 97 103 109 105 97 92 89 89 89 88 88
75 82 87 75 67 60 53 50 54 58 68 78 102 104 116 120 120 122 118 114 120 116 108 102 107 112 113 113 112 111 109 102 19 28 67 87 91 99 95 92 91 91 89
69 75 87 78 68 59 51 44 43 51 64 72 87 96 101 109 121 126 121 117 120 124 116 110 110 116 117 117 118 116 110 83 11 46 84 90 95 100 98 96 94 94 93
70 75 83 72 65 57 49 40 35 52 63 77 88 88 85 95 112 117 118 119 126 125 121 118 118 118 123 123 122 115 94 34 19 69 82 87 100 103 102 100 98 97 96
72 78 85 73 68 62 54 39 31 30 61 69 76 75 76 95 107 118 124 126 130 131 128 124 122 113 122 126 123 112 83 19 80 87 90 93 104 105 106 104 101 99 97
70 76 74 79 76 62 58 51 39 25 35 55 67 70 81 83 87 108 119 122 122 122 121 126 128 121 117 124 123 108 66 19 26 74 100 101 108 110 108 107 104 100 98
57 67 63 51 47 43 51 85 65 45 33 45 66 69 83 94 91 96 106 110 115 118 114 124 130 124 119 119 119 109 55 18 56 80 93 111 113 114 111 107 105 102 99
47 50 42 37 32 20 340 354 145 139 171 105 103 137 177 156 137 125 122 116 116 118 123 131 141 136 129 134 141 148 148 137 99 93 91 114 118 117 115 110 108 106 102
26 31 37 28 17 352 333 13 160 135 113 89 75 139 153 104 94 121 126 121 124 128 142 150 157 158 150 151 164 172 184 167 111 95 105 117 123 121 120 116 111 108 109
243 22 21 353 348 332 338 315 326 110 106 64 52 2 68 98 97 105 127 132 131 136 143 161 167 178 166 154 162 170 166 120 100 101 112 120 126 128 126 124 121 114 114
93 159 328 335 315 289 347 335 339 119 137 97 39 21 43 89 105 125 116 144 155 153 147 156 188 172 161 155 150 151 141 112 102 102 114 120 126 133 133 126 126 125 123
221 206 250 293 277 269 137 260 37 70 103 109 79 28 29 61 133 135 144 140 156 150 168 177 182 161 163 147 137 130 132 116 105 102 106 118 129 133 135 132 131 129 124
247 231 233 247 241 205 155 185 193 154 161 166 153 161 94 42 68 105 103 103 140 160 175 172 159 147 125 119 118 107 96 92 100 111 115 113 120 131 131 135 137 136 133
223 236 240 236 182 175 172 209 161 154 157 174 167 155 127 105 91 97 84 50 200 161 161 140 128 118 107 103 107 97 85 82 77 100 112 120 123 122 128 133 137 140 139
175 226 232 249 166 157 141 191 157 142 135 146 149 133 112 112 124 132 131 197 352 106 123 136 134 120 111 103 105 102 85 82 76 81 91 106 116 119 122 129 132 137 140
165 166 238 172 145 157 168 180 131 134 131 147 156 139 149 147 162 171 162 181 143 102 122 146 125 122 122 113 104 87 88 91 94 96 94 92 103 108 105 111 119 129 139
142 115 280 155 138 117 129 108 85 110 135 135 158 157 146 163 171 161 151 156 132 117 114 122 117 99 114 124 99 73 66 87 99 109 113 95 96 97 95 97 97 103 119
122 121 180 140 134 115 138 186 192 197 200 160 146 147 155 176 182 157 151 133 136 136 142 132 121 111 105 108 95 73 37 60 99 104 105 101 95 95 93 88 89 86 105
151 155 147 140 153 148 166 214 219 189 190 188 197 189 175 161 172 169 158 150 138 132 135 139 127 125 140 136 128 129 108 33 31 62 85 108 112 99 101 98 101 106 114
153 155 177 183 168 162 160 141 46 65 89 90 253 235 197 159 166 171 167 156 155 145 151 152 146 144 160 183 141 139 146 178 144 356 71 98 110 107 105 104 118 112 121
156 157 202 198 178 175 163 160 187 199 204 221 212 226 217 162 173 177 182 171 170 158 153 159 144 133 149 166 171 59 137 140 147 152 320 36 94 138 169 167 128 174 147
146 166 203 213 197 188 178 179 194 202 207 170 137 134 353 165 172 176 182 175 172 160 155 153 151 150 151 162 164 149 71 66 118 149 207 254 309 271 218 213 207 210 195
152 169 193 212 213 198 189 185 195 199 186 153 154 177 190 186 184 176 167 171 167 157 160 163 161 162 165 162 154 148 157 159 180 157 182 211 246 263 264 242 215 211 206